User: anonymous   Login
Location: Unspecified
(0.0000°N, 0.0000°E)
Time: 10:11:54
(UTC+00:00)
Language:

Tiros N - Orbit

View from above orbital plane
View from above orbital plane
View from above satellite
View from above satellite

Ground track
Ground track

The orbit data is extracted from the following two-line orbital elements,

1 11060U 78096A   17116.75925207 +.00000037 +00000-0 +39724-4 0  9990
2 11060 098.9001 166.6312 0011620 125.4168 234.8094 14.18153889205453
Epoch (UTC): 26 April 2017 18:13:19
Eccentricity: 0.0011620
inclination: 98.9001°
perigee height: 823 km
apogee height: 840 km
right ascension of ascending node: 166.6312°
argument of perigee: 125.4168°
revolutions per day: 14.18153889
mean anomaly at epoch: 234.8094°
orbit number at epoch: 20545

The dashed part of the orbit path shows where the satellite is in the earth's shadow,  

DLR